This demonstration page uses our WeatherBlox Daily Observations layout. Learn more.

Left ArrowRight Arrow

34.16533, -84.80231

Hourly Observations for October 1, 2021

Temp ( °F °C ) Dew Point ( °F °C ) Humidity (%) Winds ( mph kmh ) Pressure ( in mb ) Visibility ( mi km ) Precip ( " mm )
12:15 am 00:15 Partly Cloudy with Mist and Fog 70 21 68 20 94 94 N N/A 30.13 1020 4 6 N/A
12:35 am 00:35 Partly Cloudy with Mist and Fog 70 21 68 20 94 94 N N/A 30.13 1020 3 5 N/A
12:55 am 00:55 Mostly Clear with Mist and Fog 70 21 68 20 94 94 N N/A 30.13 1020 5 8 N/A
1:15 am 01:15 Mostly Clear with Mist and Fog 70 21 68 20 94 94 N N/A 30.13 1020 4 6 N/A
1:35 am 01:35 Mostly Clear with Mist and Fog 68 20 68 20 100 100 N N/A 30.13 1020 4 6 N/A
1:55 am 01:55 Clear 68 20 68 20 100 100 N N/A 30.13 1020 8 13 N/A
2:15 am 02:15 Clear with Mist and Fog 68 20 68 20 100 100 N N/A 30.13 1020 3 5 N/A
2:35 am 02:35 Mostly Clear with Mist and Fog 68 20 68 20 100 100 N N/A 30.13 1020 5 8 N/A
2:55 am 02:55 Mostly Cloudy with Mist and Fog 68 20 68 20 100 100 N N/A 30.13 1020 5 8 N/A
3:15 am 03:15 Mostly Cloudy with Mist and Fog 68 20 68 20 100 100 N N/A 30.13 1020 6 10 N/A
3:35 am 03:35 Partly Cloudy with Mist and Fog 68 20 68 20 100 100 N N/A 30.13 1020 4 6 N/A
3:55 am 03:55 Mostly Cloudy with Fog 68 20 66 19 94 94 N N/A 30.14 1021 0 0 N/A
4:15 am 04:15 Cloudy with Fog 66 19 66 19 100 100 N N/A 30.14 1021 1 1 N/A
4:35 am 04:35 Cloudy with Fog 66 19 66 19 100 100 N N/A 30.14 1021 0 0 N/A
4:55 am 04:55 Cloudy with Fog 66 19 66 19 100 100 N N/A 30.13 1020 0 0 N/A
5:15 am 05:15 Mostly Cloudy with Fog 66 19 66 19 100 100 N N/A 30.13 1020 0 0 N/A
5:35 am 05:35 Mostly Cloudy with Mist and Fog 66 19 66 19 100 100 N N/A 30.14 1021 1 1 N/A
5:55 am 05:55 Partly Cloudy with Mist and Fog 66 19 66 19 100 100 N N/A 30.15 1021 3 5 N/A
6:15 am 06:15 Mostly Clear with Mist and Fog 66 19 66 19 100 100 N N/A 30.16 1021 3 5 N/A
6:35 am 06:35 Clear with Mist and Fog 66 19 66 19 100 100 N N/A 30.16 1021 4 6 N/A
6:55 am 06:55 Clear with Mist and Fog 66 19 66 19 100 100 N N/A 30.17 1022 5 8 N/A
7:15 am 07:15 Clear with Mist and Fog 66 19 66 19 100 100 N N/A 30.17 1022 3 5 N/A
7:35 am 07:35 Sunny with Mist and Fog 66 19 66 19 100 100 N N/A 30.17 1022 3 4 N/A
7:55 am 07:55 Mostly Cloudy with Fog 66 19 66 19 100 100 N N/A 30.18 1022 0 0 N/A
8:15 am 08:15 Sunny with Mist and Fog 66 19 66 19 100 100 N N/A 30.18 1022 2 3 N/A
8:35 am 08:35 Sunny with Mist and Fog 66 19 66 19 100 100 N N/A 30.19 1023 3 4 N/A
8:55 am 08:55 Sunny with Mist and Fog 66 19 66 19 100 100 N N/A 30.19 1023 4 6 N/A
9:15 am 09:15 Sunny with Mist and Fog 68 20 68 20 100 100 E 3 6 30.20 1023 6 10 N/A
9:35 am 09:35 Sunny with Mist and Fog 70 21 68 20 94 94 VRB 3 6 30.20 1023 6 10 N/A
9:55 am 09:55 Sunny 72 22 68 20 88 88 VRB 3 6 30.20 1023 8 13 N/A
10:15 am 10:15 Mostly Sunny 72 22 68 20 88 88 VRB 3 6 30.20 1023 8 13 N/A
10:35 am 10:35 Sunny 73 23 68 20 83 83 E 6 9 30.19 1022 8 13 N/A
10:55 am 10:55 Sunny 75 24 68 20 78 78 VRB 5 7 30.19 1022 8 13 N/A
11:15 am 11:15 Sunny 77 25 68 20 74 74 VRB 5 7 30.19 1022 8 13 N/A
11:35 am 11:35 Mostly Sunny 79 26 68 20 70 70 E 5 7 30.19 1022 9 14 N/A
11:55 am 11:55 Mostly Sunny 81 27 68 20 66 66 SE 5 7 30.18 1022 9 14 N/A
12:15 pm 12:15 Partly Cloudy 81 27 66 19 62 62 SSE 6 9 30.18 1022 10 16 N/A
12:35 pm 12:35 Mostly Cloudy 81 27 66 19 62 62 N N/A 30.18 1022 10 16 N/A
12:55 pm 12:55 Partly Cloudy 82 28 64 18 55 55 SSE 9 15 30.18 1022 10 16 N/A
1:15 pm 13:15 Mostly Cloudy 82 28 64 18 55 55 SE 7 11 30.17 1022 10 16 N/A
1:35 pm 13:35 Mostly Sunny 82 28 64 18 55 55 SSE 7 11 30.17 1022 10 16 N/A
1:55 pm 13:55 Partly Cloudy 84 29 64 18 51 51 VRB 5 7 30.16 1021 10 16 N/A
2:15 pm 14:15 Mostly Sunny 84 29 64 18 51 51 S 6 9 30.16 1021 10 16 N/A
2:35 pm 14:35 Partly Cloudy 84 29 63 17 48 48 VRB 6 9 30.15 1021 10 16 N/A
2:55 pm 14:55 Mostly Sunny 84 29 64 18 51 51 VRB 3 6 30.14 1021 10 16 N/A
3:15 pm 15:15 Partly Cloudy 84 29 61 16 45 45 S 6 9 30.14 1021 10 16 N/A
3:35 pm 15:35 Mostly Sunny 84 29 63 17 48 48 N N/A 30.14 1021 10 16 N/A
3:55 pm 15:55 Mostly Sunny 86 30 61 16 43 43 VRB 6 9 30.13 1020 10 16 N/A
4:15 pm 16:15 Mostly Sunny 84 29 61 16 45 45 N N/A 30.13 1020 10 16 N/A
4:35 pm 16:35 Sunny 86 30 63 17 46 46 N N/A 30.13 1020 10 16 N/A
4:55 pm 16:55 Mostly Sunny 86 30 61 16 43 43 S 8 13 30.13 1020 10 16 N/A
5:15 pm 17:15 Sunny 84 29 63 17 48 48 N N/A 30.12 1020 10 16 N/A
5:35 pm 17:35 Sunny 84 29 63 17 48 48 N N/A 30.12 1020 10 16 N/A
5:55 pm 17:55 Sunny 84 29 63 17 48 48 VRB 3 6 30.12 1020 10 16 N/A
6:15 pm 18:15 Sunny 82 28 63 17 51 51 N N/A 30.12 1020 10 16 N/A
6:35 pm 18:35 Sunny 82 28 63 17 51 51 N N/A 30.12 1020 10 16 N/A
6:55 pm 18:55 Sunny 81 27 64 18 58 58 N N/A 30.12 1020 10 16 N/A
7:15 pm 19:15 Sunny 79 26 66 19 65 65 N N/A 30.14 1021 10 16 N/A
7:35 pm 19:35 Clear 77 25 66 19 69 69 N N/A 30.14 1021 10 16 N/A
7:55 pm 19:55 Mostly Cloudy 73 23 68 20 83 83 N N/A 30.15 1021 10 16 N/A
8:15 pm 20:15 Cloudy 75 24 68 20 78 78 N N/A 30.15 1021 10 16 N/A
8:35 pm 20:35 Cloudy 73 23 70 21 89 89 N N/A 30.16 1021 9 14 N/A
8:55 pm 20:55 Mostly Cloudy 72 22 68 20 88 88 N N/A 30.17 1022 9 14 N/A
9:15 pm 21:15 Mostly Cloudy 72 22 68 20 88 88 N N/A 30.17 1022 9 14 N/A
9:35 pm 21:35 Mostly Clear 72 22 68 20 88 88 N N/A 30.18 1022 9 14 N/A
9:55 pm 21:55 Mostly Clear 70 21 68 20 94 94 N N/A 30.18 1022 8 13 N/A
10:15 pm 22:15 Mostly Clear 70 21 68 20 94 94 E 3 6 30.18 1022 8 13 N/A
10:35 pm 22:35 Mostly Clear 70 21 68 20 94 94 ENE 5 7 30.18 1022 7 11 N/A
10:55 pm 22:55 Mostly Clear 70 21 68 20 94 94 N N/A 30.18 1022 8 13 N/A
11:15 pm 23:15 Clear 70 21 66 19 88 88 N N/A 30.18 1022 8 13 N/A
11:35 pm 23:35 Clear 68 20 66 19 94 94 N N/A 30.18 1022 7 11 N/A
11:55 pm 23:55 Clear 68 20 66 19 94 94 N N/A 30.18 1022 7 11 N/A

Powered by AerisWeather